カタログに戻る

YUNHAI 2-1E

運用中気象LEO
NORAD 43913·PAYLOAD·🇨🇳 China

打ち上げ Dec 29, 2018 から Jiuquan Satellite Launch Center

Loading…

次のパス (今後24時間)

TLE

最新Source: Space-Track

元期: Sep 14, 2026, 15:53 UTC

1 43913U 18112E   26257.66199616  .00000079  00000-0  94552-4 0  9994
2 43913  50.0061 146.9044 0005195 322.5678  37.4874 14.29040374401951

AllMySatでYUNHAI 2-1Eをリアルタイム追跡

Download on the App Store